Vorticity
3 4 3 7 7 11 17 -5 2 -6 12 9 10 4 10 9 15 -3 24 26 3 4 6 5 8 5 5 6 6 5 5 5 5 5 5 5 5 5 6 8 5 8 8 7 7 5 6 5 6
4 5 5 5 -16 1 14 4 -2 2 -10 20 18 11 2 17 4 -20 8 13 16 6 0 6 9 8 6 5 6 6 6 6 6 5 5 5 6 6 7 6 6 6 8 7 7 7 5 5 5
7 6 5 -2 12 -10 -9 7 5 5 1 -17 7 22 1 14 1 9 2 16 1 10 5 6 9 8 9 7 6 6 6 6 6 5 4 3 4 7 8 7 4 4 4 8 8 6 5 6 5
8 9 14 -7 -3 7 5 -5 -5 14 7 2 -10 18 15 3 5 1 20 12 1 6 3 5 9 6 6 5 7 8 6 6 4 4 5 6 7 10 8 -2 3 7 0 10 11 7 5 5 5
11 7 10 18 1 -6 7 7 2 -3 3 10 4 -5 14 6 6 2 22 9 -2 10 1 5 8 7 5 5 8 8 6 5 5 4 4 5 7 5 0 10 10 -1 5 8 7 9 7 2 1
6 5 -10 5 3 8 -0 6 12 4 10 5 11 -1 5 6 3 6 13 9 -1 8 3 6 5 7 5 2 8 7 7 6 5 5 8 7 7 5 9 -5 1 8 9 6 12 13 14 7 2
10 4 -6 -13 24 4 4 3 -2 8 3 1 11 14 3 -0 3 2 14 11 2 4 1 4 4 7 6 6 8 7 7 6 5 7 7 6 7 4 1 8 5 14 -2 6 6 10 -23 19 12
7 11 9 10 -1 11 11 5 6 1 7 9 -5 16 6 1 1 5 14 11 7 3 -1 2 6 5 5 6 8 7 6 4 7 8 5 7 6 7 9 17 9 3 1 8 1 3 -8 3 17
7 6 12 -4 12 -16 13 6 8 7 1 14 12 7 23 -1 2 8 17 10 9 1 -8 6 8 5 2 5 8 6 8 6 7 5 8 8 9 10 11 7 5 6 5 9 13 6 12 12 20
5 0 11 -1 29 6 17 -9 11 18 7 -1 9 20 20 10 7 8 5 4 9 2 1 11 3 3 2 3 7 8 8 5 5 7 6 6 10 11 6 4 4 8 8 8 8 7 6 6 1
19 -9 -6 -2 31 1 41 -4 7 -2 17 8 10 -13 -2 15 1 0 5 11 8 11 8 6 4 3 2 2 8 7 6 7 4 5 4 5 8 6 3 4 6 9 10 5 8 13 10 8 13
6 -13 9 32 -25 15 32 -0 14 6 -1 22 6 14 -3 -1 9 7 16 14 15 6 5 6 5 2 2 2 4 8 7 9 8 4 4 6 5 5 5 3 4 6 8 7 8 6 12 5 7
13 -6 42 -25 -32 -7 8 16 17 6 6 5 21 -3 21 9 1 7 8 9 9 1 4 5 3 4 4 1 2 7 8 7 7 2 4 6 4 3 3 3 5 6 8 8 12 6 8 7 12
-5 44 -2 -33 54 0 -3 2 -5 16 8 2 10 19 0 12 4 2 8 17 7 10 10 3 5 4 5 1 1 4 7 8 8 6 3 5 4 3 1 3 5 6 7 7 13 5 2 9 6
-27 17 61 6 -31 2 34 10 -5 0 15 17 6 12 17 2 6 3 9 16 16 12 1 4 7 5 5 2 2 2 6 7 7 7 4 4 4 3 2 2 4 4 4 6 7 7 4 8 -1
43 -35 36 14 12 17 -13 11 33 -10 6 5 6 17 14 3 4 1 -0 1 12 19 14 3 8 7 6 5 3 2 3 7 6 9 6 5 6 1 1 1 2 2 3 4 5 6 7 4 2
65 17 -38 65 -6 -62 27 22 27 24 13 -4 7 5 8 15 6 3 3 1 5 8 14 20 3 3 7 4 4 3 3 8 5 7 8 6 5 2 0 1 1 2 4 3 4 4 4 5 6
27 70 31 -32 24 27 -19 -8 -38 45 15 30 -0 10 -4 17 11 5 -1 1 4 11 11 19 16 5 2 7 3 4 2 4 6 6 7 6 5 5 2 1 0 4 -2 6 3 3 4 3 4
26 -40 79 44 7 29 24 -31 4 3 19 14 24 3 4 -6 23 7 1 3 4 7 10 14 18 8 5 4 3 1 4 2 6 4 6 7 5 6 2 3 2 -0 0 -1 1 2 2 4 2
11 20 14 31 41 9 1 32 -20 9 -20 19 18 19 0 7 20 6 7 2 4 1 4 12 14 6 7 10 13 -0 4 4 4 5 5 3 5 5 4 3 -5 1 1 9 7 7 9 9 9
7 22 8 -30 53 32 19 28 -24 38 2 6 2 31 14 13 6 17 6 2 5 5 -1 9 8 6 13 6 11 4 6 8 3 6 5 4 3 4 0 3 7 5 8 14 9 9 13 11 12
22 30 23 7 -9 15 -11 52 39 -7 16 24 13 5 26 6 9 8 8 1 5 5 1 3 18 4 11 4 7 6 19 9 7 6 7 -1 11 -7 10 2 4 2 12 4 -1 12 12 12 9
36 43 9 6 -11 -31 72 -41 48 44 -3 5 18 16 8 16 7 17 7 5 2 8 2 8 0 9 18 11 10 -3 2 0 28 16 -2 5 -8 21 -14 15 -5 2 6 6 12 8 2 8 9
4 -11 24 24 3 22 -13 -16 59 36 44 5 4 14 11 19 7 9 -1 6 3 2 12 13 6 6 3 0 -3 5 -6 24 5 9 11 8 17 -19 11 -32 17 -3 2 9 11 3 4 7 8
7 10 12 9 6 7 26 28 -17 24 31 20 3 3 19 16 4 13 3 13 8 6 11 4 9 8 5 14 8 9 9 -19 15 -2 16 -5 11 -11 13 26 16 -5 4 5 5 -1 4 7 1
20 -1 6 4 10 13 15 16 -8 10 13 39 46 3 17 15 1 21 9 13 14 12 10 13 15 17 13 24 2 8 -4 9 -12 17 -3 21 16 25 -4 13 23 -11 0 5 6 -1 6 7 2
20 9 8 7 13 -5 14 15 4 23 29 28 37 21 13 9 10 1 14 12 11 6 10 10 6 7 7 28 8 17 37 13 18 5 -14 46 0 31 41 -10 -4 17 -31 12 1 3 4 3 4
23 23 17 14 13 8 1 5 9 26 20 29 22 20 -25 19 15 2 6 11 7 6 10 7 7 10 13 14 31 9 14 2 65 -1 -10 15 -9 -17 8 23 43 -8 20 7 4 0 4 3 -4
59 10 16 7 11 13 5 7 20 15 22 19 27 23 19 -5 4 6 -7 -10 7 10 9 4 6 7 7 -4 9 13 13 -7 36 15 16 -2 15 17 -15 43 -44 41 33 2 8 4 1 8 5
-16 44 18 6 -6 7 25 7 18 17 13 27 25 11 26 6 10 8 29 7 -9 10 5 5 12 4 6 7 4 24 20 -15 -4 -9 10 -1 8 10 -1 -3 9 39 -40 7 10 4 -0 -6 15
Height
3101 3103 3105 3108 3112 3104 3099 3100 3106 3111 3115 3118 3122 3124 3127 3130 3133 3137 3136 3139 3142 3145 3147 3149 3151 3152 3155 3157 3159 3162 3164 3167 3169 3171 3172 3174 3176 3177 3179 3180 3182 3183 3185 3187 3188 3190 3191 3192 3194
3095 3098 3100 3100 3098 3093 3088 3095 3097 3106 3114 3115 3118 3121 3124 3127 3130 3133 3136 3138 3141 3143 3146 3148 3150 3152 3155 3157 3159 3161 3164 3166 3169 3171 3173 3175 3176 3178 3179 3180 3182 3184 3186 3188 3189 3191 3192 3194 3195
3089 3091 3093 3090 3085 3080 3081 3088 3096 3105 3112 3114 3115 3117 3121 3123 3127 3131 3134 3137 3140 3142 3145 3147 3149 3152 3154 3156 3159 3161 3164 3167 3169 3171 3173 3174 3176 3177 3179 3181 3183 3185 3187 3188 3189 3191 3193 3195 3197
3081 3083 3083 3076 3070 3077 3079 3087 3095 3102 3107 3110 3113 3114 3116 3121 3125 3129 3131 3135 3138 3140 3143 3146 3149 3152 3154 3156 3158 3161 3164 3167 3169 3171 3173 3175 3176 3178 3180 3182 3185 3186 3188 3188 3191 3192 3194 3196 3197
3074 3072 3070 3062 3063 3072 3076 3084 3091 3097 3102 3106 3109 3110 3114 3118 3122 3126 3129 3133 3136 3138 3142 3145 3148 3151 3153 3156 3159 3161 3164 3167 3169 3171 3173 3174 3176 3179 3182 3184 3185 3187 3188 3188 3190 3193 3195 3196 3198
3063 3062 3056 3050 3056 3063 3072 3081 3086 3091 3098 3100 3103 3107 3110 3115 3120 3124 3127 3130 3133 3136 3140 3144 3147 3150 3153 3155 3158 3161 3164 3167 3169 3171 3173 3175 3177 3180 3182 3184 3186 3187 3188 3189 3191 3192 3194 3196 3199
3049 3050 3041 3045 3049 3056 3065 3076 3079 3086 3091 3095 3098 3100 3106 3111 3116 3120 3124 3128 3132 3134 3138 3142 3146 3149 3152 3155 3157 3160 3163 3166 3169 3171 3174 3175 3177 3179 3182 3184 3185 3187 3189 3190 3193 3194 3194 3197 3199
3043 3043 3037 3034 3041 3045 3063 3069 3076 3079 3085 3090 3092 3094 3102 3107 3111 3115 3120 3124 3128 3131 3135 3140 3144 3147 3150 3153 3156 3160 3163 3166 3169 3171 3173 3175 3177 3179 3181 3183 3186 3188 3190 3191 3193 3195 3196 3198 3198
3037 3031 3016 3024 3033 3042 3058 3061 3069 3074 3079 3083 3085 3091 3097 3103 3108 3111 3114 3118 3123 3128 3132 3137 3142 3145 3149 3152 3155 3158 3162 3166 3168 3170 3173 3175 3178 3179 3181 3184 3187 3189 3190 3192 3193 3195 3197 3199 3199
3020 3012 3008 3022 3030 3037 3053 3054 3063 3068 3071 3075 3080 3086 3092 3097 3102 3106 3111 3115 3120 3125 3130 3135 3139 3143 3147 3150 3154 3157 3161 3164 3168 3171 3173 3176 3178 3179 3182 3185 3187 3189 3191 3192 3194 3196 3198 3200 3201
3007 2992 3015 3019 3026 3032 3044 3046 3055 3058 3060 3066 3076 3083 3087 3092 3097 3102 3107 3112 3117 3121 3126 3131 3136 3140 3144 3148 3152 3155 3159 3163 3167 3171 3174 3176 3179 3181 3183 3186 3188 3189 3191 3193 3194 3196 3198 3201 3203
3000 2999 3009 3019 3022 3027 3032 3040 3043 3047 3054 3065 3072 3078 3083 3086 3091 3097 3102 3107 3111 3116 3122 3128 3133 3138 3142 3147 3151 3154 3158 3162 3166 3170 3173 3177 3179 3182 3184 3187 3189 3190 3192 3193 3196 3197 3199 3202 3205
2988 2994 3004 3011 3014 3021 3028 3028 3034 3036 3049 3057 3062 3068 3074 3081 3087 3093 3099 3104 3108 3112 3118 3123 3129 3135 3139 3144 3149 3153 3157 3161 3166 3169 3173 3176 3180 3182 3184 3187 3189 3191 3193 3194 3196 3198 3201 3203 3206
2982 2989 2994 3001 3006 3015 3020 3023 3026 3026 3040 3046 3053 3059 3068 3074 3081 3088 3091 3097 3103 3109 3114 3119 3125 3131 3137 3142 3146 3151 3155 3160 3164 3168 3172 3175 3179 3182 3184 3187 3189 3191 3193 3195 3197 3200 3202 3204 3207
2977 2982 2984 2988 2999 3003 3013 3014 2997 3019 3031 3039 3046 3053 3061 3068 3074 3080 3087 3094 3099 3105 3111 3116 3122 3127 3133 3139 3144 3149 3153 3157 3162 3166 3170 3174 3177 3180 3183 3186 3189 3192 3194 3197 3199 3201 3203 3205 3208
2967 2974 2974 2977 2990 2996 3008 2979 3001 3013 3023 3031 3039 3046 3053 3061 3067 3076 3083 3090 3094 3100 3105 3112 3117 3124 3130 3136 3141 3146 3150 3156 3159 3164 3168 3172 3175 3178 3182 3185 3188 3191 3194 3197 3199 3202 3204 3206 3208
2955 2951 2961 2971 2980 2989 2989 2972 2993 3002 3014 3023 3031 3039 3047 3054 3062 3068 3076 3083 3089 3095 3099 3105 3113 3119 3126 3132 3138 3143 3149 3153 3157 3161 3165 3169 3173 3177 3180 3184 3187 3190 3193 3196 3199 3201 3203 3205 3207
2950 2948 2952 2959 2969 2979 2976 2977 2988 2995 3003 3013 3024 3031 3039 3046 3052 3062 3070 3077 3083 3089 3094 3100 3107 3114 3122 3128 3133 3139 3145 3149 3154 3158 3163 3166 3170 3174 3178 3182 3185 3188 3191 3194 3197 3199 3202 3204 3206
2945 2948 2948 2953 2959 2968 2964 2978 2983 2993 2997 3004 3013 3023 3030 3038 3047 3056 3064 3071 3077 3083 3089 3095 3102 3109 3115 3121 3127 3133 3138 3144 3150 3154 3159 3163 3167 3171 3175 3179 3183 3186 3189 3192 3194 3196 3199 3201 3204
2940 2940 2943 2948 2953 2958 2963 2968 2979 2985 2990 2996 3005 3014 3023 3032 3038 3047 3055 3062 3068 3077 3084 3090 3096 3104 3111 3117 3123 3128 3134 3139 3145 3150 3155 3159 3163 3167 3172 3176 3180 3183 3187 3189 3192 3193 3195 3197 3198
2931 2935 2938 2947 2946 2952 2961 2965 2970 2975 2983 2992 2998 3007 3017 3025 3030 3038 3046 3055 3062 3070 3078 3086 3093 3099 3105 3110 3117 3124 3129 3134 3138 3144 3149 3154 3158 3163 3167 3172 3176 3180 3183 3186 3188 3190 3192 3193 3194
2928 2929 2937 2943 2945 2944 2951 2952 2959 2964 2973 2978 2990 2998 3006 3016 3024 3032 3040 3047 3056 3066 3074 3080 3087 3093 3099 3107 3112 3118 3124 3128 3134 3140 3146 3150 3154 3159 3163 3167 3172 3176 3179 3182 3185 3186 3188 3189 3191
2927 2932 2934 2934 2940 2942 2944 2951 2945 2957 2966 2971 2979 2989 2999 3009 3017 3024 3034 3041 3051 3060 3067 3074 3081 3088 3095 3102 3108 3113 3118 3125 3132 3136 3140 3146 3150 3155 3159 3164 3168 3172 3175 3178 3181 3183 3184 3185 3187
2922 2923 2928 2932 2943 2945 2944 2947 2940 2945 2950 2964 2974 2984 2994 3002 3011 3019 3029 3037 3043 3052 3061 3067 3075 3083 3090 3096 3102 3108 3114 3120 3125 3129 3135 3139 3144 3148 3154 3156 3163 3167 3170 3173 3176 3178 3180 3182 3184
2926 2929 2931 2933 2938 2939 2943 2946 2943 2943 2949 2958 2971 2980 2988 2996 3005 3011 3019 3028 3037 3046 3054 3062 3069 3075 3082 3089 3095 3102 3109 3115 3120 3125 3130 3134 3137 3141 3147 3153 3157 3160 3165 3168 3170 3173 3175 3177 3179
2926 2929 2930 2938 2934 2939 2944 2940 2940 2942 2946 2953 2962 2975 2983 2990 2998 3007 3015 3024 3032 3041 3049 3056 3063 3068 3074 3080 3087 3094 3100 3107 3112 3116 3122 3124 3132 3134 3137 3144 3148 3152 3158 3161 3165 3167 3169 3172 3174
2928 2930 2931 2931 2930 2933 2941 2942 2939 2941 2944 2951 2958 2968 2974 2983 2992 3002 3010 3019 3028 3036 3043 3050 3057 3061 3067 3075 3082 3088 3094 3100 3098 3107 3114 3110 3115 3127 3131 3133 3141 3143 3148 3154 3158 3161 3163 3166 3168
2930 2933 2933 2932 2933 2939 2939 2939 2937 2942 2944 2948 2955 2964 2969 2978 2988 2997 3006 3015 3023 3030 3038 3045 3050 3056 3062 3069 3074 3081 3087 3091 3091 3100 3106 3110 3114 3118 3123 3128 3131 3136 3139 3144 3149 3153 3158 3160 3162
2934 2934 2933 2933 2935 2937 2943 2946 2945 2945 2944 2947 2952 2960 2968 2973 2983 2991 3001 3009 3017 3025 3032 3038 3045 3050 3056 3062 3068 3074 3079 3084 3089 3095 3100 3102 3107 3112 3116 3121 3125 3128 3132 3137 3141 3145 3150 3153 3154
2945 2937 2936 2937 2934 2934 2935 2949 2946 2945 2946 2947 2951 2957 2962 2970 2978 2983 2992 3001 3010 3017 3024 3031 3038 3044 3050 3056 3061 3067 3072 3077 3081 3088 3093 3096 3101 3106 3111 3113 3118 3119 3124 3129 3132 3135 3141 3145 3147